Newark, NJ

5:37 PM EST on November 24, 2017 (GMT -0500)
Newark International

Weather History for KEWR - June, 2014

Change the Weather History Date:

Friday, June 27, 2014

  Actual Average Record
Temperature  
Mean Temperature 75 °F 76 °F  
Max Temperature 83 °F 85 °F 101 °F (1966)
Min Temperature 67 °F 67 °F 52 °F (1940)
Degree Days  
Heating Degree Days 0 0  
Month to date heating degree days 0 15  
Since 1 June heating degree days 0 15  
Since 1 July heating degree days 5166 4870  
Cooling Degree Days 10 11  
Month to date cooling degree days 215 205  
Year to date cooling degree days 277 281  
Since 1 June cooling degree days 215 205  
Growing Degree Days 26 (Base 50)    
Moisture  
Dew Point 61 °F    
Average Humidity 65    
Maximum Humidity 84    
Minimum Humidity 45    
Precipitation  
Precipitation 0.00 in 0.12 in 1.40 in (1932)
Month to date precipitation 4.41 3.65  
Year to date precipitation 27.76 22.54  
Snow  
Snow 0.00 in 0.00 in 0.00 in (2002)
Month to date snowfall 0.0 0.0  
Since 1 July snowfall 61.1 28.5  
Snow Depth 0.00 in    
Sea Level Pressure  
Sea Level Pressure 30.10 in    
Wind  
Wind Speed 6 mph (SE)    
Max Wind Speed 13 mph    
Max Gust Speed 16 mph    
Visibility 10 miles    
Events      
T = Trace of Precipitation, MM = Missing Value Source: NWS Daily Summary

Daily Weather History Graph

Daily Weather History Graph

Search for Another Location

Airport or City:

Trip Planner

Search our weather history database for the weather conditions in past years. The results will help you decide how hot, cold, wet, or windy it might be!

Date:

Astronomy

Jun. 27, 2014 Rise Set
Actual Time 5:27 AM EDT 8:31 PM EDT
Civil Twilight 4:54 AM EDT 9:05 PM EDT
Nautical Twilight 4:11 AM EDT 9:47 PM EDT
Astronomical Twilight 3:21 AM EDT 10:37 PM EDT
Moon 5:56 AM EDT (6/27) 8:34 PM EDT (6/27)
Length of Visible Light 16h 11m
Length of Day
15h 04m
New Moon, 0% of the Moon is Illuminated
Jun 27
New Moon
Jul 5
First Quarter
Jul 12
Full
Jul 18
Last Quarter
Jul 26
New

Hourly Weather History & Observations

Time (EDT) Temp. Heat Index Dew Point Humidity Pressure Visibility Wind Dir Wind Speed Gust Speed Precip Events Conditions
12:51 AM 75.0 °F - 66.0 °F 73% 29.98 in 10.0 mi NNE 9.2 mph - N/A   Mostly Cloudy
1:25 AM 73.4 °F - 66.2 °F 78% 29.99 in 10.0 mi East 9.2 mph - N/A   Overcast
1:51 AM 72.0 °F - 66.0 °F 81% 30.00 in 10.0 mi ESE 10.4 mph - N/A   Overcast
2:51 AM 71.1 °F - 64.0 °F 78% 30.01 in 10.0 mi East 8.1 mph - N/A   Overcast
3:33 AM 71.6 °F - 64.4 °F 78% 30.02 in 10.0 mi SE 4.6 mph - N/A   Overcast
3:51 AM 71.1 °F - 63.0 °F 75% 30.03 in 10.0 mi SSE 5.8 mph - N/A   Overcast
4:51 AM 70.0 °F - 62.1 °F 76% 30.04 in 10.0 mi South 5.8 mph - N/A   Overcast
5:13 AM 69.8 °F - 62.6 °F 78% 30.05 in 10.0 mi South 4.6 mph - N/A   Overcast
5:51 AM 69.1 °F - 62.1 °F 78% 30.06 in 10.0 mi Calm Calm - N/A   Overcast
6:51 AM 69.8 °F - 62.6 °F 78% 30.08 in 10.0 mi Variable 3.5 mph - N/A   Overcast
7:51 AM 71.1 °F - 63.0 °F 75% 30.09 in 10.0 mi Calm Calm - N/A   Overcast
8:51 AM 73.0 °F - 63.0 °F 71% 30.11 in 10.0 mi East 5.8 mph - N/A   Overcast
9:51 AM 75.9 °F - 64.0 °F 67% 30.12 in 10.0 mi NNW 4.6 mph - N/A   Mostly Cloudy
10:46 AM 75.2 °F - 62.6 °F 65% 30.13 in 10.0 mi ENE 3.5 mph - N/A   Mostly Cloudy
10:51 AM 75.9 °F - 62.1 °F 62% 30.13 in 10.0 mi ENE 5.8 mph - N/A   Mostly Cloudy
11:51 AM 78.1 °F - 60.1 °F 54% 30.13 in 10.0 mi East 8.1 mph - N/A   Mostly Cloudy
12:51 PM 81.0 °F 81.1 °F 57.9 °F 45% 30.12 in 10.0 mi Calm Calm - N/A   Mostly Cloudy
1:51 PM 80.6 °F 81.5 °F 60.8 °F 51% 30.12 in 10.0 mi Variable 5.8 mph - N/A   Mostly Cloudy
2:51 PM 78.8 °F - 60.8 °F 54% 30.12 in 10.0 mi South 5.8 mph - N/A   Mostly Cloudy
3:51 PM 79.0 °F - 57.9 °F 48% 30.12 in 10.0 mi SSE 6.9 mph - N/A   Scattered Clouds
4:51 PM 81.0 °F 81.1 °F 57.9 °F 45% 30.11 in 10.0 mi South 8.1 mph - N/A   Scattered Clouds
5:51 PM 79.0 °F - 57.0 °F 47% 30.12 in 10.0 mi SSE 8.1 mph - N/A   Scattered Clouds
6:51 PM 78.1 °F - 57.0 °F 48% 30.13 in 10.0 mi SE 8.1 mph - N/A   Scattered Clouds
7:51 PM 75.9 °F - 57.0 °F 52% 30.15 in 10.0 mi SE 6.9 mph - N/A   Scattered Clouds
8:51 PM 73.9 °F - 55.9 °F 53% 30.17 in 10.0 mi SSE 6.9 mph - N/A   Scattered Clouds
9:51 PM 72.0 °F - 57.0 °F 59% 30.19 in 10.0 mi SSE 6.9 mph - N/A   Scattered Clouds
10:51 PM 70.0 °F - 59.0 °F 68% 30.22 in 10.0 mi South 6.9 mph - N/A   Scattered Clouds
11:51 PM 69.1 °F - 59.0 °F 70% 30.23 in 10.0 mi SSW 5.8 mph - N/A   Partly Cloudy